Time,TemperatureF,DewpointF,PressureIn,WindDirection,WindDirectionDegrees,WindSpeedMPH,WindSpeedGustMPH,Humidity,HourlyPrecipIn,Conditions,Clouds,dailyrainin,SoftwareType,DateUTC
2013-02-04 00:13:00,25.1,18.0,30.01,SSW,209,5.0,10.0,75,0.00,,,0.00,weatherlink.com 1.10,2013-02-04 06:13:00,
2013-02-04 00:28:00,25.0,18.0,30.01,South,186,6.0,11.0,76,0.00,,,0.00,weatherlink.com 1.10,2013-02-04 06:28:00,
2013-02-04 00:43:00,25.4,19.0,29.99,South,180,1.0,9.0,76,0.00,,,0.00,weatherlink.com 1.10,2013-02-04 06:43:00,
2013-02-04 00:58:00,25.5,19.0,29.98,SSW,207,5.0,12.0,76,0.00,,,0.00,weatherlink.com 1.10,2013-02-04 06:58:00,
2013-02-04 01:13:00,25.6,19.0,29.97,South,171,6.0,12.0,75,0.00,,,0.00,weatherlink.com 1.10,2013-02-04 07:13:00,
2013-02-04 01:29:00,25.9,19.0,29.96,SSW,202,5.0,10.0,75,0.00,,,0.00,weatherlink.com 1.10,2013-02-04 07:29:00,
2013-02-04 01:44:00,26.2,19.0,29.94,SSW,211,6.0,11.0,74,0.00,,,0.00,weatherlink.com 1.10,2013-02-04 07:44:00,
2013-02-04 01:59:00,26.5,19.0,29.94,SSW,198,6.0,9.0,73,0.00,,,0.00,weatherlink.com 1.10,2013-02-04 07:59:00,
2013-02-04 02:14:00,26.6,19.0,29.93,SSW,210,7.0,10.0,73,0.00,,,0.00,weatherlink.com 1.10,2013-02-04 08:14:00,
2013-02-04 02:29:00,26.6,19.0,29.93,SSW,196,3.0,13.0,73,0.00,,,0.00,weatherlink.com 1.10,2013-02-04 08:29:00,
2013-02-04 02:44:00,26.5,19.0,29.92,South,171,7.0,11.0,74,0.00,,,0.00,weatherlink.com 1.10,2013-02-04 08:44:00,
2013-02-04 02:59:00,26.5,19.0,29.91,South,191,5.0,12.0,74,0.00,,,0.00,weatherlink.com 1.10,2013-02-04 08:59:00,
2013-02-04 03:14:00,26.5,20.0,29.90,South,186,7.0,13.0,75,0.00,,,0.00,weatherlink.com 1.10,2013-02-04 09:14:00,
2013-02-04 03:29:00,26.7,20.0,29.89,SSW,202,5.0,12.0,75,0.00,,,0.00,weatherlink.com 1.10,2013-02-04 09:29:00,
2013-02-04 03:44:00,27.2,20.0,29.89,SSW,208,5.0,14.0,74,0.00,,,0.00,weatherlink.com 1.10,2013-02-04 09:44:00,
2013-02-04 03:59:00,27.6,20.0,29.88,South,188,5.0,13.0,74,0.00,,,0.00,weatherlink.com 1.10,2013-02-04 09:59:00,
2013-02-04 04:14:00,27.9,21.0,29.87,SSW,213,5.0,15.0,74,0.00,,,0.00,weatherlink.com 1.10,2013-02-04 10:14:00,
2013-02-04 04:29:00,27.8,21.0,29.87,South,189,5.0,9.0,75,0.00,,,0.00,weatherlink.com 1.10,2013-02-04 10:29:00,
2013-02-04 04:45:00,27.8,21.0,29.87,WSW,238,5.0,9.0,76,0.00,,,0.00,weatherlink.com 1.10,2013-02-04 10:45:00,
2013-02-04 05:00:00,27.8,21.0,29.87,SW,214,2.0,7.0,76,0.00,,,0.00,weatherlink.com 1.10,2013-02-04 11:00:00,
2013-02-04 05:15:00,27.7,21.0,29.86,SSW,211,5.0,7.0,77,0.00,,,0.00,weatherlink.com 1.10,2013-02-04 11:15:00,
2013-02-04 05:30:00,27.7,21.0,29.86,SSW,195,6.0,7.0,77,0.00,,,0.00,weatherlink.com 1.10,2013-02-04 11:30:00,
2013-02-04 05:45:00,27.8,22.0,29.86,SW,223,5.0,5.0,78,0.00,,,0.00,weatherlink.com 1.10,2013-02-04 11:45:00,
2013-02-04 06:00:00,27.9,22.0,29.86,SSW,213,1.0,5.0,78,0.00,,,0.00,weatherlink.com 1.10,2013-02-04 12:00:00,
2013-02-04 06:15:00,27.9,22.0,29.85,SSW,211,0.0,7.0,77,0.00,,,0.00,weatherlink.com 1.10,2013-02-04 12:15:00,
2013-02-04 06:30:00,27.9,22.0,29.85,South,175,2.0,5.0,78,0.00,,,0.00,weatherlink.com 1.10,2013-02-04 12:30:00,
2013-02-04 06:45:00,27.8,22.0,29.84,South,178,3.0,5.0,79,0.00,,,0.00,weatherlink.com 1.10,2013-02-04 12:45:00,
2013-02-04 07:00:00,27.6,22.0,29.84,South,169,2.0,4.0,80,0.00,,,0.00,weatherlink.com 1.10,2013-02-04 13:00:00,
2013-02-04 07:15:00,27.6,22.0,29.84,South,172,0.0,3.0,80,0.00,,,0.00,weatherlink.com 1.10,2013-02-04 13:15:00,
2013-02-04 07:30:00,27.6,22.0,29.84,South,170,0.0,3.0,80,0.00,,,0.00,weatherlink.com 1.10,2013-02-04 13:30:00,
2013-02-04 07:45:00,27.8,22.0,29.85,South,170,1.0,2.0,80,0.00,,,0.00,weatherlink.com 1.10,2013-02-04 13:45:00,
2013-02-04 08:01:00,27.9,23.0,29.86,South,170,0.0,1.0,80,0.00,,,0.00,weatherlink.com 1.10,2013-02-04 14:01:00,
2013-02-04 08:16:00,27.9,23.0,29.86,South,169,1.0,2.0,82,0.00,,,0.00,weatherlink.com 1.10,2013-02-04 14:16:00,
2013-02-04 08:31:00,27.8,23.0,29.86,South,169,0.0,1.0,82,0.00,,,0.00,weatherlink.com 1.10,2013-02-04 14:31:00,
2013-02-04 08:46:00,28.1,23.0,29.87,East,85,1.0,3.0,82,0.00,,,0.00,weatherlink.com 1.10,2013-02-04 14:46:00,
2013-02-04 09:01:00,28.7,23.0,29.86,East,99,1.0,3.0,80,0.00,,,0.00,weatherlink.com 1.10,2013-02-04 15:01:00,
2013-02-04 09:16:00,29.0,23.0,29.86,East,88,1.0,3.0,79,0.00,,,0.00,weatherlink.com 1.10,2013-02-04 15:16:00,
2013-02-04 09:31:00,29.2,23.0,29.87,ENE,62,1.0,3.0,79,0.00,,,0.00,weatherlink.com 1.10,2013-02-04 15:31:00,
2013-02-04 09:46:00,29.5,23.0,29.87,East,100,2.0,5.0,77,0.00,,,0.00,weatherlink.com 1.10,2013-02-04 15:46:00,
2013-02-04 10:01:00,30.6,24.0,29.87,NNE,13,3.0,4.0,76,0.00,,,0.00,weatherlink.com 1.10,2013-02-04 16:01:00,
2013-02-04 10:16:00,32.0,25.0,29.88,NE,46,4.0,7.0,75,0.00,,,0.00,weatherlink.com 1.10,2013-02-04 16:16:00,
2013-02-04 10:31:00,32.7,25.0,29.89,NNE,24,4.0,9.0,74,0.00,,,0.00,weatherlink.com 1.10,2013-02-04 16:31:00,
2013-02-04 10:46:00,32.6,26.0,29.89,East,83,3.0,10.0,76,0.00,,,0.00,weatherlink.com 1.10,2013-02-04 16:46:00,
2013-02-04 11:01:00,32.4,26.0,29.89,NE,40,7.0,11.0,78,0.00,,,0.00,weatherlink.com 1.10,2013-02-04 17:01:00,
2013-02-04 11:16:00,32.5,27.0,29.90,ENE,76,2.0,11.0,79,0.00,,,0.00,weatherlink.com 1.10,2013-02-04 17:16:00,
2013-02-04 11:32:00,31.9,26.0,29.90,NE,49,4.0,11.0,79,0.00,,,0.00,weatherlink.com 1.10,2013-02-04 17:32:00,
2013-02-04 11:47:00,31.5,26.0,29.89,NNE,23,3.0,12.0,79,0.00,,,0.00,weatherlink.com 1.10,2013-02-04 17:47:00,
2013-02-04 12:02:00,31.1,26.0,29.90,NE,44,5.0,10.0,81,0.00,,,0.00,weatherlink.com 1.10,2013-02-04 18:02:00,
2013-02-04 12:17:00,30.3,25.0,29.90,North,9,5.0,13.0,82,0.00,,,0.00,weatherlink.com 1.10,2013-02-04 18:17:00,
2013-02-04 12:32:00,28.9,24.0,29.92,East,82,6.0,14.0,83,0.00,,,0.00,weatherlink.com 1.10,2013-02-04 18:32:00,
2013-02-04 12:47:00,28.3,24.0,29.93,ENE,64,9.0,10.0,85,0.00,,,0.00,weatherlink.com 1.10,2013-02-04 18:47:00,
2013-02-04 13:02:00,27.8,24.0,29.94,NNE,28,5.0,12.0,84,0.00,,,0.00,weatherlink.com 1.10,2013-02-04 19:02:00,
2013-02-04 13:17:00,27.8,24.0,29.94,NNW,348,8.0,11.0,85,0.00,,,0.00,weatherlink.com 1.10,2013-02-04 19:17:00,
2013-02-04 13:32:00,27.9,24.0,29.94,North,360,8.0,12.0,84,0.00,,,0.00,weatherlink.com 1.10,2013-02-04 19:32:00,
2013-02-04 13:47:00,27.5,23.0,29.95,NNE,33,3.0,13.0,83,0.00,,,0.00,weatherlink.com 1.10,2013-02-04 19:47:00,
2013-02-04 14:02:00,27.0,23.0,29.95,NNE,24,1.0,12.0,84,0.00,,,0.00,weatherlink.com 1.10,2013-02-04 20:02:00,
2013-02-04 14:17:00,27.2,23.0,29.96,NNE,31,3.0,10.0,84,0.00,,,0.00,weatherlink.com 1.10,2013-02-04 20:17:00,
2013-02-04 14:33:00,26.4,22.0,29.95,ENE,63,7.0,11.0,83,0.00,,,0.00,weatherlink.com 1.10,2013-02-04 20:33:00,
2013-02-04 14:48:00,26.3,22.0,29.93,NE,46,6.0,11.0,84,0.00,,,0.00,weatherlink.com 1.10,2013-02-04 20:48:00,
2013-02-04 15:03:00,26.2,22.0,29.94,NE,53,3.0,10.0,84,0.00,,,0.00,weatherlink.com 1.10,2013-02-04 21:03:00,
2013-02-04 15:18:00,26.3,22.0,29.95,NNE,32,4.0,8.0,83,0.00,,,0.00,weatherlink.com 1.10,2013-02-04 21:18:00,
2013-02-04 15:33:00,25.7,21.0,29.95,NNE,27,2.0,9.0,83,0.00,,,0.00,weatherlink.com 1.10,2013-02-04 21:33:00,
2013-02-04 15:48:00,25.7,22.0,29.95,NNE,24,2.0,8.0,84,0.00,,,0.00,weatherlink.com 1.10,2013-02-04 21:48:00,
2013-02-04 16:03:00,26.0,22.0,29.96,East,87,2.0,8.0,84,0.00,,,0.00,weatherlink.com 1.10,2013-02-04 22:03:00,
2013-02-04 16:18:00,26.1,22.0,29.96,ENE,67,2.0,9.0,84,0.00,,,0.00,weatherlink.com 1.10,2013-02-04 22:18:00,
2013-02-04 16:33:00,25.9,22.0,29.97,NE,35,5.0,10.0,84,0.00,,,0.00,weatherlink.com 1.10,2013-02-04 22:33:00,
2013-02-04 16:48:00,25.2,21.0,29.99,NNE,29,2.0,7.0,84,0.00,,,0.00,weatherlink.com 1.10,2013-02-04 22:48:00,
2013-02-04 17:03:00,24.8,21.0,30.00,ENE,61,2.0,6.0,84,0.00,,,0.00,weatherlink.com 1.10,2013-02-04 23:03:00,
2013-02-04 17:18:00,24.3,20.0,30.00,NE,40,0.0,6.0,84,0.00,,,0.00,weatherlink.com 1.10,2013-02-04 23:18:00,
2013-02-04 17:33:00,23.6,20.0,30.00,ENE,71,2.0,7.0,84,0.00,,,0.00,weatherlink.com 1.10,2013-02-04 23:33:00,
2013-02-04 17:49:00,23.0,19.0,30.01,NE,38,2.0,3.0,85,0.00,,,0.00,weatherlink.com 1.10,2013-02-04 23:49:00,
2013-02-04 18:04:00,22.5,19.0,30.01,NE,34,0.0,3.0,85,0.00,,,0.00,weatherlink.com 1.10,2013-02-05 00:04:00,
2013-02-04 18:19:00,21.9,18.0,30.01,NNE,17,0.0,2.0,86,0.00,,,0.00,weatherlink.com 1.10,2013-02-05 00:19:00,
2013-02-04 18:34:00,21.2,18.0,30.02,NNE,17,0.0,1.0,87,0.00,,,0.00,weatherlink.com 1.10,2013-02-05 00:34:00,
2013-02-04 18:49:00,20.8,18.0,30.01,NNE,22,0.0,2.0,87,0.00,,,0.00,weatherlink.com 1.10,2013-02-05 00:49:00,
2013-02-04 19:04:00,21.0,18.0,30.01,NE,34,2.0,4.0,87,0.00,,,0.00,weatherlink.com 1.10,2013-02-05 01:04:00,
2013-02-04 19:19:00,20.4,17.0,30.02,NE,56,0.0,1.0,87,0.00,,,0.00,weatherlink.com 1.10,2013-02-05 01:19:00,
2013-02-04 19:34:00,20.2,17.0,30.03,NNW,344,2.0,4.0,88,0.00,,,0.00,weatherlink.com 1.10,2013-02-05 01:34:00,
2013-02-04 19:49:00,20.4,17.0,30.03,NNE,22,1.0,3.0,87,0.00,,,0.00,weatherlink.com 1.10,2013-02-05 01:49:00,
2013-02-04 20:04:00,20.7,17.0,30.02,NE,53,1.0,4.0,87,0.00,,,0.00,weatherlink.com 1.10,2013-02-05 02:04:00,
2013-02-04 20:19:00,20.7,17.0,30.03,NE,48,3.0,4.0,86,0.00,,,0.00,weatherlink.com 1.10,2013-02-05 02:19:00,
2013-02-04 20:34:00,20.6,17.0,30.03,NE,48,2.0,7.0,84,0.00,,,0.00,weatherlink.com 1.10,2013-02-05 02:34:00,
2013-02-04 20:49:00,20.3,17.0,30.03,NE,52,1.0,6.0,85,0.00,,,0.00,weatherlink.com 1.10,2013-02-05 02:49:00,
2013-02-04 21:04:00,20.2,16.0,30.02,ESE,107,1.0,6.0,85,0.00,,,0.00,weatherlink.com 1.10,2013-02-05 03:04:00,
2013-02-04 21:20:00,19.7,15.0,30.04,NE,52,1.0,5.0,83,0.00,,,0.00,weatherlink.com 1.10,2013-02-05 03:20:00,
2013-02-04 21:35:00,19.0,15.0,30.04,NNE,17,0.0,4.0,84,0.00,,,0.00,weatherlink.com 1.10,2013-02-05 03:35:00,
2013-02-04 21:50:00,18.5,15.0,30.03,NE,35,1.0,4.0,84,0.00,,,0.00,weatherlink.com 1.10,2013-02-05 03:50:00,
2013-02-04 22:05:00,18.2,14.0,30.02,NE,56,1.0,3.0,84,0.00,,,0.00,weatherlink.com 1.10,2013-02-05 04:05:00,
2013-02-04 22:20:00,17.8,14.0,30.02,ENE,66,0.0,2.0,84,0.00,,,0.00,weatherlink.com 1.10,2013-02-05 04:20:00,
2013-02-04 22:35:00,17.5,14.0,30.02,ENE,66,0.0,1.0,84,0.00,,,0.00,weatherlink.com 1.10,2013-02-05 04:35:00,
2013-02-04 22:50:00,17.3,14.0,30.02,ENE,66,0.0,0.0,85,0.00,,,0.00,weatherlink.com 1.10,2013-02-05 04:50:00,
2013-02-04 23:05:00,16.9,13.0,30.01,ENE,66,0.0,1.0,85,0.00,,,0.00,weatherlink.com 1.10,2013-02-05 05:05:00,
2013-02-04 23:20:00,16.5,13.0,30.02,ENE,66,0.0,0.0,85,0.00,,,0.00,weatherlink.com 1.10,2013-02-05 05:20:00,
2013-02-04 23:35:00,16.2,13.0,30.01,ENE,66,0.0,0.0,86,0.00,,,0.00,weatherlink.com 1.10,2013-02-05 05:35:00,
2013-02-04 23:50:00,16.3,13.0,30.01,ENE,66,0.0,0.0,87,0.00,,,0.00,weatherlink.com 1.10,2013-02-05 05:50:00,